Chinook Pass
Chinook Pass
Latest observation 09/01 16:00 PDT
| Time (PDT) | Temp °F 6240' | Temp °F 5500' | RH % 6240' | RH % 5500' | Spd mph 6240' | Gust mph 6240' | Dir ° 6240' | Pcp1 in 5500' | PcpSum in 5500' | SnoHt in 5500' | EqTemp °F 5500' |
|---|---|---|---|---|---|---|---|---|---|---|---|
| 09/01 16:00 | 49 | 58 | 98 | 70 | 17 | 29 | 223 | 0.00 | 0.00 | -0.8 | 64 |
| 09/01 15:00 | 52 | 59 | 78 | 66 | 9 | 23 | 212 | 0.00 | 0.00 | -0.7 | 75 |
| 09/01 14:00 | 54 | 60 | 64 | 62 | 9 | 15 | 209 | 0.00 | 0.00 | -1.1 | 76 |
| 09/01 13:00 | 53 | 58 | 73 | 65 | 9 | 16 | 178 | 0.00 | 0.00 | -0.9 | 75 |
| 09/01 12:00 | 55 | 57 | 60 | 65 | 1 | 7 | 240 | 0.00 | 0.00 | -1.3 | 76 |
| 09/01 11:00 | 53 | 55 | 70 | 67 | 0 | 1 | 252 | 0.00 | 0.00 | -0.8 | 71 |
| 09/01 10:00 | 56 | 51 | 56 | 74 | 0 | 1 | 26 | 0.00 | 0.00 | -1.1 | 57 |
| 09/01 09:00 | 53 | 51 | 58 | 68 | 0 | 0 | 315 | 0.00 | 0.00 | -1.0 | 55 |
| 09/01 08:00 | 51 | 51 | 68 | 66 | 0 | 0 | 310 | 0.00 | 0.00 | -0.8 | 52 |
| 09/01 07:00 | 51 | 50 | 67 | 70 | 0 | 0 | 303 | 0.00 | 0.00 | -0.9 | 50 |
| 09/01 06:00 | 51 | 51 | 60 | 71 | 2 | 13 | 238 | 0.00 | 0.00 | -1.0 | 49 |
| 09/01 05:00 | 52 | 52 | 57 | 66 | 4 | 12 | 217 | 0.00 | 0.00 | -0.9 | 50 |
| 09/01 04:00 | 55 | 55 | 45 | 51 | 4 | 11 | 205 | 0.00 | 0.00 | -0.5 | 52 |
| 09/01 03:00 | 57 | 55 | 38 | 48 | 14 | 18 | 183 | 0.00 | 0.00 | -0.6 | 53 |
| 09/01 02:00 | 55 | 55 | 47 | 48 | 12 | 18 | 130 | 0.00 | 0.00 | -0.9 | 52 |
| 09/01 01:00 | 55 | 56 | 46 | 47 | 13 | 20 | 99 | 0.00 | 0.00 | -0.9 | 52 |
| 09/01 00:00 | 53 | 55 | 50 | 51 | 14 | 19 | 85 | 0.00 | 0.00 | -0.5 | 52 |
| 08/31 23:00 | 54 | 55 | 54 | 48 | 11 | 15 | 89 | 0.00 | 0.00 | -1.1 | 52 |
| 08/31 22:00 | 54 | 56 | 56 | 65 | 12 | 17 | 68 | 0.00 | 0.00 | -1.1 | 54 |
| 08/31 21:00 | 55 | 57 | 47 | 45 | 12 | 19 | 59 | 0.00 | 0.00 | -0.7 | 56 |
| 08/31 20:00 | 56 | 59 | 45 | 41 | 12 | 19 | 59 | 0.00 | 0.00 | -0.8 | 58 |
| 08/31 19:00 | 58 | 60 | 42 | 40 | 6 | 16 | 56 | 0.00 | 0.00 | -0.6 | 61 |
| 08/31 18:00 | 60 | 63 | 37 | 37 | 7 | 20 | 78 | 0.00 | 0.00 | -0.7 | 66 |
| 08/31 17:00 | 66 | 69 | 26 | 28 | 11 | 30 | 222 | 0.00 | 0.00 | -0.4 | 83 |

